Wind_Speed
8 6 5 7 6 10 17 11 9 10 6 8 8 7 4 8 4 10 18 15 14 13 14 14 13 12 13 15 15 13 11 10 9 9 9 9 10 10 11 12 12 12 13 14 14 14 14 13 12
10 7 7 7 16 19 9 10 10 10 7 9 9 10 7 5 5 15 17 17 16 14 14 13 13 13 12 15 15 13 11 10 10 9 9 9 10 10 10 11 12 12 13 14 13 14 13 12 11
11 9 9 10 22 7 8 10 13 12 6 10 11 11 6 11 13 14 18 19 18 16 15 13 12 12 13 13 15 13 11 10 10 9 9 9 10 10 10 11 11 11 12 12 12 12 12 11 10
10 10 13 12 22 10 5 10 17 16 11 8 10 6 14 16 15 17 19 18 19 18 17 14 12 11 11 12 14 12 10 10 10 10 10 9 10 10 11 10 10 11 12 11 11 11 10 10 9
10 10 15 19 22 1 5 11 15 14 11 12 9 11 11 15 21 20 20 19 17 17 16 14 11 11 11 11 11 11 10 9 9 9 10 10 9 9 10 10 10 10 10 10 10 9 9 8 8
9 11 19 23 24 8 8 12 13 12 13 12 10 9 13 16 19 23 20 19 19 18 17 14 11 9 9 9 10 10 9 8 8 8 8 9 10 9 8 8 9 9 10 9 8 9 8 8 7
12 17 22 24 24 14 15 15 14 13 12 10 15 10 13 16 18 19 22 21 19 19 17 14 12 9 7 7 7 7 7 7 7 7 7 7 7 7 7 6 5 5 5 5 6 7 7 7 6
13 17 22 24 20 15 18 16 12 14 14 15 12 9 15 15 17 18 17 15 17 17 17 14 12 10 8 5 4 4 4 5 4 4 5 5 5 5 5 4 4 4 3 3 4 4 5 5 4
12 16 23 23 24 13 18 19 17 21 24 17 13 9 17 16 16 17 17 18 17 16 15 12 10 7 5 4 4 2 2 1 0 1 1 1 2 2 2 2 2 2 2 2 3 3 4 5 6
15 17 20 20 19 14 16 22 20 20 20 18 19 14 14 17 17 16 15 15 14 14 14 13 11 10 9 7 5 2 5 2 2 2 3 3 3 2 3 3 3 3 4 5 6 6 7 9 10
16 21 14 15 16 15 17 20 16 17 14 18 21 17 18 21 19 18 17 15 14 14 13 13 12 11 10 8 5 7 5 5 4 4 5 5 6 5 7 7 7 7 8 10 9 11 12 13 13
22 19 18 13 15 16 22 24 19 16 17 18 22 20 20 21 21 18 17 16 15 13 12 12 12 11 9 7 7 7 9 7 9 7 7 7 9 8 8 10 10 11 13 13 15 16 18 18 19
22 19 20 18 15 17 22 20 30 34 32 26 24 22 22 23 21 16 16 16 16 14 12 12 11 10 8 8 9 8 8 8 9 11 10 10 11 10 10 12 10 12 13 13 15 16 19 20 21
20 22 20 17 17 19 22 23 24 34 32 26 23 24 25 25 24 22 19 18 16 14 13 11 11 9 8 7 7 8 8 9 10 12 11 11 11 10 12 13 13 13 14 15 16 17 18 21 22
21 18 18 18 20 18 21 21 20 31 33 28 25 26 27 26 23 22 21 18 16 16 13 12 9 10 10 9 10 9 11 11 11 10 11 8 7 6 7 10 11 12 14 14 16 18 21 23 24
20 22 24 22 23 20 24 23 26 30 29 26 26 29 27 25 26 22 20 18 17 18 14 15 13 14 13 14 13 13 13 10 12 8 8 7 7 8 10 8 11 15 19 22 24 25 27 26 26
25 30 31 25 25 23 26 23 23 29 29 28 29 30 29 28 26 23 21 20 20 18 16 15 15 14 15 16 16 16 14 15 13 13 13 15 14 14 12 16 18 23 26 28 27 26 26 26 27
33 31 31 33 26 26 27 22 23 28 28 28 31 31 31 29 29 27 24 22 22 17 17 16 16 16 17 17 20 20 19 23 17 22 19 19 18 16 21 20 24 25 26 21 19 18 18 20 18
34 34 33 34 30 29 31 30 24 26 27 28 29 33 33 34 32 28 25 24 23 19 17 17 17 18 18 20 24 28 22 25 22 21 23 20 15 16 21 24 25 21 18 16 14 14 14 16 16
35 36 34 30 23 24 26 31 22 29 33 30 29 32 35 36 32 30 28 26 24 20 19 19 19 20 21 24 28 24 26 27 20 19 17 18 20 22 23 20 17 15 12 11 11 12 14 16 16
32 38 31 32 19 18 20 29 23 23 26 28 29 28 34 36 32 30 29 26 23 21 20 20 19 19 20 19 20 21 17 19 23 22 21 22 21 19 16 14 12 10 10 12 13 14 15 16 17
33 32 34 34 20 25 28 25 32 30 31 33 37 35 35 35 33 31 29 28 26 23 21 20 20 19 19 20 19 19 20 20 19 19 19 16 15 14 11 10 9 11 11 12 13 14 15 16 16
35 27 31 36 33 24 26 34 29 32 33 39 38 37 38 37 34 32 31 28 26 23 21 20 21 20 20 20 19 19 18 17 16 15 15 13 11 9 9 9 11 11 11 12 13 13 14 15 16
23 28 28 32 39 26 31 33 36 44 42 36 35 38 40 38 35 33 32 29 26 23 22 22 23 21 20 19 19 17 16 15 14 14 11 9 9 10 10 10 10 10 11 12 12 13 14 16 17
26 23 24 24 24 19 41 43 37 23 39 40 38 39 39 38 39 38 35 31 26 23 23 24 24 21 20 19 18 17 16 15 14 12 11 10 11 11 10 10 9 10 11 12 13 14 15 17 18
30 30 27 23 18 25 46 43 54 38 25 37 36 38 33 41 46 42 38 33 28 25 27 25 23 22 20 19 18 17 17 16 14 12 12 12 12 11 11 9 10 11 11 12 14 15 17 18 20
32 35 38 40 37 32 40 37 47 30 34 27 31 34 37 38 38 42 39 36 30 29 27 26 24 24 22 20 18 18 17 16 15 15 15 14 12 11 10 10 11 11 12 13 15 16 17 19 21
34 33 30 39 26 28 36 42 36 38 36 37 32 35 38 42 42 45 39 37 32 31 29 29 27 26 23 21 20 19 19 19 17 16 14 13 11 11 11 11 11 12 13 14 15 16 17 19 21
29 35 36 32 41 18 21 34 40 35 37 41 36 34 38 41 35 34 37 38 36 33 30 28 27 25 24 23 22 21 20 19 17 16 14 12 12 12 11 12 12 12 13 14 15 16 18 20 21
31 34 37 34 30 38 41 34 35 20 26 40 34 36 39 44 42 35 38 39 39 34 31 27 26 26 25 24 23 22 21 19 18 17 14 14 14 12 12 12 12 12 13 14 15 17 19 21 23
Wind_Direction
230 212 243 223 254 208 238 107 106 104 80 106 128 113 104 145 127 119 144 160 150 146 129 120 109 99 95 92 87 80 74 69 67 64 68 82 87 90 95 98 102 98 94 95 98 102 100 103 108
235 212 234 225 249 269 161 126 125 119 95 129 111 97 103 129 160 141 156 158 148 142 130 122 114 108 99 94 92 87 81 70 61 58 74 88 97 96 95 99 98 100 100 100 102 101 103 105 107
238 220 218 256 251 246 211 152 134 122 103 115 108 129 108 132 127 138 157 156 148 142 133 124 116 113 108 101 97 91 81 72 66 69 77 90 97 103 101 100 102 101 101 101 103 103 102 101 104
229 231 223 238 255 166 202 140 139 129 128 116 126 134 146 140 150 149 153 155 151 149 136 132 126 116 110 108 105 102 93 80 71 74 82 94 103 104 101 101 102 106 106 105 104 102 103 102 97
217 218 235 238 246 130 154 160 140 141 143 139 138 132 164 156 153 149 152 152 156 151 141 138 136 128 118 110 104 101 97 87 78 81 87 92 101 112 113 117 115 111 114 117 117 116 114 113 111
224 226 238 239 241 205 184 175 156 160 147 149 158 192 170 163 158 154 153 156 157 153 148 146 144 136 126 116 114 114 111 100 87 83 88 93 103 108 121 128 132 133 131 131 135 134 134 133 130
225 232 238 240 242 189 191 185 178 176 157 151 159 168 181 175 167 166 156 164 162 157 152 153 152 151 140 129 124 122 123 124 118 106 99 98 102 112 118 117 122 130 133 144 151 155 159 163 161
235 239 241 236 243 208 191 189 181 180 168 154 166 218 199 186 177 170 169 163 161 156 158 161 161 162 160 156 151 140 137 138 134 125 116 115 114 105 101 112 124 129 139 176 174 183 194 200 202
238 237 234 232 231 219 187 187 174 178 208 182 175 192 214 200 186 178 174 172 170 166 166 170 174 173 164 197 195 201 212 209 109 94 78 58 67 85 115 121 136 160 188 205 223 241 257 268 280
222 234 233 232 232 211 193 196 208 186 202 188 197 215 195 203 190 183 179 178 177 178 176 180 181 193 197 221 223 216 250 254 285 312 313 311 315 313 310 300 279 272 269 265 266 272 275 277 280
236 233 239 238 221 213 215 206 204 192 188 205 208 213 203 200 193 185 185 185 185 187 188 191 196 205 212 229 246 267 276 281 280 277 280 288 290 293 295 299 295 295 293 289 289 286 286 289 290
237 236 243 238 226 215 198 199 207 194 196 195 208 211 208 202 196 185 186 191 196 196 202 204 211 216 223 239 242 266 284 289 288 292 285 286 285 284 287 285 295 292 294 297 298 300 300 297 296
236 231 233 230 232 205 205 204 200 193 204 205 201 203 202 200 194 176 179 186 198 201 209 215 223 227 235 244 251 267 289 286 295 295 292 289 287 298 293 292 287 287 292 296 292 293 293 295 297
235 240 235 227 219 202 202 203 226 219 215 213 207 207 201 200 201 205 199 199 198 202 207 217 227 235 251 268 271 270 288 283 287 281 280 283 285 286 291 290 293 297 300 303 302 304 305 303 299
235 229 223 218 211 207 197 215 212 225 222 213 206 211 207 209 210 205 203 198 202 213 218 234 245 253 259 260 268 279 290 279 295 298 262 273 282 281 284 288 290 295 296 299 301 302 304 303 297
224 223 226 226 212 208 202 219 218 226 220 211 209 211 210 210 209 208 207 209 217 233 235 245 248 254 260 262 264 272 278 274 289 281 249 278 284 252 268 288 287 288 292 295 295 294 293 292 294
227 226 226 222 210 209 207 229 220 218 218 207 206 213 211 212 212 213 214 221 230 239 239 244 248 253 257 259 262 269 257 274 278 280 266 277 296 276 286 297 297 298 298 298 293 294 293 290 292
224 226 234 225 209 213 213 217 227 210 199 202 206 211 216 215 214 214 219 225 233 232 233 237 246 252 258 256 266 268 245 275 263 267 264 287 281 268 291 291 299 299 303 302 300 299 300 297 309
237 236 229 236 213 207 220 218 217 220 196 199 202 212 214 215 219 217 220 221 227 228 235 239 244 253 251 257 256 254 271 257 272 272 278 277 270 275 286 292 297 296 296 300 302 307 310 311 317
234 241 245 238 210 199 217 219 207 218 208 205 203 210 214 220 218 219 220 221 226 228 238 246 254 258 258 242 255 250 262 260 256 262 260 266 273 279 290 289 291 292 294 303 310 311 313 313 315
235 233 239 240 198 202 219 220 215 210 205 206 208 209 214 219 219 219 220 224 231 240 249 256 259 260 254 242 248 247 242 252 255 255 264 271 276 281 283 288 290 299 310 312 313 314 313 314 317
239 232 234 239 210 213 215 226 214 213 208 215 218 216 218 218 220 220 225 230 236 244 252 259 262 259 251 244 243 245 241 249 252 257 264 266 270 274 276 282 296 296 295 297 304 307 309 310 312
243 239 240 234 243 233 218 225 225 213 217 215 217 216 220 223 226 226 230 234 240 245 253 258 260 256 248 243 242 242 243 245 248 250 254 259 261 267 271 277 277 280 287 296 302 305 308 311 315
242 240 242 241 233 236 224 218 229 220 226 224 218 218 224 226 230 232 235 237 239 245 253 259 257 247 240 235 233 233 235 238 244 247 245 246 250 255 261 262 268 280 293 301 304 308 313 318 319
227 227 228 234 230 231 223 233 230 240 231 225 219 214 233 232 233 237 239 239 241 244 250 251 248 240 232 228 228 233 238 239 234 231 231 237 244 248 251 261 275 287 297 301 308 313 316 317 321
225 223 228 231 226 231 231 228 239 236 236 230 219 217 221 229 229 233 236 236 240 245 247 248 240 233 228 229 233 233 229 225 224 224 229 233 237 243 252 267 281 289 295 304 310 313 316 321 321
229 223 230 241 245 243 237 238 242 238 235 217 215 213 211 224 235 236 237 236 238 243 247 246 239 235 232 232 231 227 224 223 223 224 225 229 235 246 260 271 279 288 299 307 312 316 319 320 323
233 229 231 236 244 244 241 245 234 231 228 221 214 213 210 224 229 234 234 234 235 238 239 237 233 231 231 229 224 223 223 223 221 222 226 232 242 253 261 271 282 293 302 305 309 313 317 320 323
232 236 239 238 236 251 251 242 237 243 219 219 222 217 216 236 243 239 232 231 233 234 234 232 231 230 228 224 222 222 222 222 223 225 230 237 244 250 259 270 281 289 295 301 309 316 318 322 327
242 242 232 238 236 239 246 253 239 265 243 216 220 219 219 233 233 228 221 228 229 230 227 225 227 225 221 221 222 223 222 223 225 229 233 238 242 249 258 268 277 287 297 307 315 317 321 327 331
Height
3159 3159 3158 3158 3160 3153 3149 3145 3150 3153 3155 3156 3155 3158 3157 3157 3157 3163 3163 3162 3162 3163 3162 3163 3163 3163 3163 3162 3162 3164 3164 3165 3165 3165 3165 3165 3164 3164 3164 3164 3165 3165 3166 3167 3168 3169 3170 3171 3173
3158 3158 3158 3157 3156 3146 3145 3144 3150 3154 3154 3155 3154 3157 3160 3158 3157 3157 3159 3162 3162 3163 3163 3164 3164 3165 3164 3164 3163 3165 3167 3167 3166 3166 3166 3167 3167 3167 3167 3167 3167 3168 3168 3169 3170 3171 3172 3173 3174
3156 3157 3158 3158 3149 3146 3151 3148 3149 3153 3155 3156 3157 3159 3158 3158 3159 3160 3159 3161 3162 3163 3164 3165 3166 3166 3166 3165 3164 3166 3167 3168 3168 3168 3167 3168 3168 3169 3169 3169 3170 3170 3171 3172 3172 3173 3174 3176 3177
3155 3158 3158 3156 3145 3143 3149 3146 3150 3154 3157 3159 3158 3156 3157 3159 3159 3160 3161 3162 3162 3163 3163 3166 3167 3167 3168 3167 3166 3166 3168 3169 3169 3169 3169 3169 3169 3170 3170 3171 3172 3172 3173 3174 3175 3176 3177 3178 3178
3154 3157 3157 3153 3146 3145 3147 3151 3151 3155 3158 3159 3160 3159 3159 3159 3158 3160 3162 3162 3164 3163 3164 3166 3168 3168 3169 3169 3169 3169 3170 3171 3171 3170 3171 3171 3171 3171 3172 3173 3173 3174 3175 3176 3176 3178 3179 3179 3180
3154 3156 3154 3149 3145 3144 3149 3152 3154 3156 3157 3160 3160 3158 3159 3159 3160 3160 3161 3162 3163 3164 3164 3166 3168 3169 3170 3170 3170 3170 3171 3171 3172 3172 3172 3172 3173 3173 3174 3174 3175 3175 3175 3177 3178 3178 3179 3180 3181
3149 3153 3150 3147 3142 3144 3149 3153 3155 3156 3157 3159 3158 3158 3160 3159 3160 3161 3161 3161 3162 3163 3165 3167 3168 3169 3170 3170 3171 3171 3172 3173 3173 3174 3174 3174 3175 3176 3176 3177 3177 3177 3178 3178 3178 3178 3179 3179 3180
3149 3151 3148 3145 3142 3144 3147 3152 3155 3157 3157 3157 3160 3157 3159 3159 3160 3161 3161 3162 3161 3162 3164 3166 3168 3170 3171 3171 3171 3172 3173 3173 3174 3175 3176 3176 3176 3176 3177 3177 3178 3178 3178 3179 3180 3180 3181 3181 3181
3145 3147 3143 3143 3143 3143 3145 3151 3152 3151 3150 3153 3156 3157 3156 3159 3160 3161 3162 3163 3163 3164 3165 3167 3169 3170 3171 3171 3172 3172 3173 3173 3175 3176 3176 3177 3177 3178 3178 3178 3179 3179 3180 3180 3181 3181 3182 3182 3182
3142 3144 3140 3141 3142 3142 3144 3149 3146 3150 3148 3150 3150 3152 3156 3159 3160 3161 3163 3164 3165 3166 3167 3168 3169 3170 3171 3171 3173 3174 3174 3175 3175 3176 3177 3177 3178 3179 3179 3179 3180 3180 3180 3181 3181 3181 3181 3181 3182
3140 3140 3139 3138 3139 3141 3144 3148 3146 3149 3149 3148 3149 3151 3153 3157 3159 3161 3162 3164 3165 3166 3167 3168 3169 3170 3172 3172 3173 3174 3174 3175 3175 3176 3177 3177 3178 3178 3178 3179 3179 3179 3180 3179 3180 3180 3180 3180 3180
3137 3137 3137 3138 3137 3140 3142 3142 3143 3150 3149 3146 3147 3150 3152 3155 3158 3161 3162 3164 3165 3166 3168 3169 3169 3170 3172 3173 3174 3174 3174 3175 3174 3175 3176 3177 3177 3178 3178 3178 3178 3178 3178 3178 3178 3178 3178 3177 3177
3132 3134 3133 3133 3134 3139 3139 3138 3139 3139 3140 3142 3145 3148 3151 3153 3156 3161 3162 3163 3164 3165 3167 3168 3169 3171 3172 3173 3173 3174 3174 3175 3175 3175 3175 3176 3176 3176 3177 3177 3177 3176 3176 3176 3176 3175 3174 3174 3173
3130 3130 3129 3130 3132 3135 3136 3133 3134 3136 3137 3140 3143 3146 3149 3151 3153 3156 3158 3160 3162 3163 3165 3167 3168 3170 3171 3172 3173 3173 3174 3174 3174 3173 3174 3174 3174 3174 3174 3174 3174 3174 3174 3173 3172 3172 3172 3171 3170
3124 3126 3127 3127 3128 3129 3133 3131 3131 3131 3134 3138 3141 3143 3146 3149 3152 3154 3156 3158 3160 3161 3163 3164 3168 3168 3170 3171 3171 3172 3172 3173 3173 3172 3172 3172 3173 3173 3173 3172 3172 3172 3171 3171 3169 3169 3168 3168 3166
3119 3122 3121 3123 3125 3127 3128 3128 3125 3128 3131 3135 3138 3140 3144 3147 3149 3152 3155 3157 3158 3158 3162 3163 3164 3166 3167 3168 3169 3169 3169 3170 3171 3171 3171 3172 3172 3171 3171 3171 3171 3170 3169 3168 3167 3165 3164 3162 3162
3113 3111 3115 3118 3119 3124 3125 3127 3121 3125 3128 3131 3134 3137 3141 3143 3146 3149 3152 3154 3155 3156 3159 3161 3162 3163 3164 3165 3166 3166 3167 3167 3168 3168 3168 3168 3169 3169 3168 3168 3167 3166 3164 3162 3161 3159 3158 3157 3156
3104 3108 3109 3110 3113 3119 3121 3123 3119 3121 3124 3127 3130 3133 3136 3140 3143 3145 3148 3151 3152 3154 3156 3158 3159 3160 3161 3161 3162 3162 3163 3164 3163 3165 3165 3165 3165 3165 3164 3164 3162 3160 3158 3156 3155 3154 3153 3151 3151
3102 3102 3103 3104 3102 3110 3115 3119 3114 3117 3121 3124 3127 3129 3132 3134 3137 3141 3144 3146 3147 3150 3152 3154 3155 3156 3157 3157 3157 3159 3159 3159 3160 3160 3161 3162 3161 3161 3160 3159 3158 3156 3155 3153 3152 3151 3150 3148 3147
3098 3097 3095 3099 3098 3100 3109 3113 3111 3112 3115 3120 3123 3124 3126 3128 3133 3136 3139 3142 3143 3146 3147 3149 3150 3151 3151 3153 3153 3153 3155 3155 3156 3157 3157 3157 3158 3157 3156 3155 3154 3153 3151 3150 3149 3149 3147 3146 3145
3092 3093 3096 3096 3095 3100 3107 3109 3108 3109 3112 3114 3117 3120 3120 3123 3128 3131 3134 3137 3139 3141 3143 3144 3144 3145 3146 3147 3148 3149 3150 3150 3151 3152 3153 3153 3153 3152 3151 3151 3151 3149 3148 3148 3147 3146 3145 3143 3142
3087 3091 3094 3092 3092 3094 3100 3098 3101 3104 3105 3107 3109 3112 3114 3118 3122 3125 3128 3131 3133 3135 3137 3138 3139 3140 3140 3142 3143 3144 3145 3146 3147 3147 3148 3148 3148 3148 3148 3148 3147 3147 3147 3147 3146 3144 3143 3141 3139
3082 3089 3089 3089 3087 3091 3091 3096 3092 3099 3098 3097 3100 3104 3107 3112 3116 3119 3122 3125 3128 3130 3132 3133 3134 3135 3136 3137 3138 3139 3140 3142 3143 3144 3145 3145 3145 3145 3145 3146 3147 3147 3146 3145 3143 3142 3140 3138 3136
3081 3083 3084 3083 3084 3078 3086 3088 3081 3084 3086 3095 3097 3098 3101 3106 3111 3113 3115 3118 3122 3125 3127 3128 3129 3130 3131 3133 3134 3136 3137 3138 3139 3140 3141 3141 3142 3143 3144 3145 3145 3144 3143 3141 3140 3139 3136 3135 3133
3075 3079 3076 3076 3069 3065 3073 3079 3070 3075 3081 3085 3090 3091 3095 3102 3105 3107 3109 3112 3116 3119 3121 3122 3124 3125 3126 3129 3130 3132 3133 3134 3136 3137 3138 3139 3140 3141 3142 3142 3142 3141 3140 3138 3137 3135 3133 3132 3130
3066 3071 3068 3062 3058 3060 3066 3058 3056 3072 3076 3079 3083 3084 3088 3091 3094 3099 3103 3107 3110 3113 3114 3116 3118 3120 3122 3124 3126 3128 3129 3131 3133 3134 3136 3137 3138 3139 3139 3139 3138 3137 3136 3135 3133 3132 3130 3128 3125
3059 3059 3062 3062 3057 3054 3051 3052 3060 3065 3069 3074 3078 3079 3080 3081 3087 3092 3096 3100 3105 3108 3109 3111 3113 3115 3117 3119 3121 3124 3126 3128 3130 3132 3133 3135 3135 3135 3135 3135 3135 3134 3133 3131 3130 3128 3126 3124 3121
3052 3054 3057 3056 3051 3046 3043 3043 3045 3055 3060 3066 3070 3074 3076 3075 3078 3082 3088 3094 3098 3101 3103 3105 3107 3110 3112 3114 3117 3120 3123 3125 3127 3129 3130 3131 3131 3132 3132 3132 3132 3131 3130 3129 3128 3126 3123 3121 3118
3048 3047 3047 3047 3047 3040 3035 3033 3042 3046 3049 3057 3062 3067 3071 3069 3072 3076 3080 3086 3091 3094 3097 3100 3102 3105 3107 3110 3113 3116 3119 3121 3123 3125 3126 3127 3128 3129 3129 3129 3129 3129 3128 3126 3124 3122 3120 3118 3114
3040 3038 3040 3041 3038 3037 3036 3030 3042 3041 3043 3042 3055 3058 3062 3062 3065 3069 3073 3077 3082 3087 3091 3094 3097 3100 3102 3106 3109 3112 3114 3117 3119 3121 3123 3124 3125 3126 3126 3126 3126 3125 3124 3122 3120 3119 3116 3113 3109